| time (UTC) | temp F | wind direction | speed MPH | gust MPH | rain 1hr in | rain 24hr in | rain mn in | humidity % | barometer mb |
| 20260507193122 | 90 | 360 | 3.0 | 9.0 | 0.00 | 0.00 | 0.00 | 8 | 1010.8 |
| 20260507192122 | 90 | 359 | 8.0 | 10.0 | 0.00 | 0.00 | 0.00 | 8 | 1011.2 |
| 20260507191143 | 89 | 353 | 5.0 | 15.0 | 0.00 | 0.00 | 0.00 | 10 | 1011.3 |
| 20260507190122 | 89 | 357 | 6.0 | 11.0 | 0.00 | 0.00 | 0.00 | 11 | 1011.5 |
| 20260507185122 | 87 | 356 | 7.0 | 12.0 | 0.00 | 0.00 | 0.00 | 12 | 1011.6 |
| 20260507184122 | 88 | 355 | 6.0 | 12.0 | 0.00 | 0.00 | 0.00 | 12 | 1011.8 |
| 20260507183122 | 87 | 1 | 3.0 | 9.0 | 0.00 | 0.00 | 0.00 | 12 | 1011.9 |
| 20260507182143 | 90 | 7 | 2.0 | 9.0 | 0.00 | 0.00 | 0.00 | 7 | 1012.0 |
| 20260507181122 | 87 | 2 | 3.0 | 6.0 | 0.00 | 0.00 | 0.00 | 10 | 1012.2 |
| 20260507180122 | 86 | 7 | 3.0 | 5.0 | 0.00 | 0.00 | 0.00 | 10 | 1012.3 |
| 20260507175122 | 85 | 2 | 2.0 | 5.0 | 0.00 | 0.00 | 0.00 | 14 | 1012.5 |
| 20260507174122 | 84 | 356 | 6.0 | 9.0 | 0.00 | 0.00 | 0.00 | 16 | 1012.5 |
| 20260507173122 | 84 | 358 | 3.0 | 10.0 | 0.00 | 0.00 | 0.00 | 17 | 1012.6 |
| 20260507172122 | 83 | 352 | 3.0 | 5.0 | 0.00 | 0.00 | 0.00 | 17 | 1012.8 |
| 20260507171122 | 82 | 360 | 3.0 | 6.0 | 0.00 | 0.00 | 0.00 | 18 | 1012.8 |
| 20260507170143 | 81 | 360 | 3.0 | 8.0 | 0.00 | 0.00 | 0.00 | 18 | 1012.9 |
| 20260507165122 | 81 | 357 | 5.0 | 10.0 | 0.00 | 0.00 | 0.00 | 19 | 1013.0 |
| 20260507164122 | 80 | 360 | 4.0 | 9.0 | 0.00 | 0.00 | 0.00 | 21 | 1013.1 |
| 20260507163122 | 80 | 357 | 5.0 | 9.0 | 0.00 | 0.00 | 0.00 | 21 | 1013.1 |
| 20260507162122 | 78 | 360 | 5.0 | 9.0 | 0.00 | 0.00 | 0.00 | 22 | 1013.1 |
| 20260507161122 | 78 | 357 | 4.0 | 6.0 | 0.00 | 0.00 | 0.00 | 21 | 1013.3 |
| 20260507160122 | 78 | 357 | 4.0 | 8.0 | 0.00 | 0.00 | 0.00 | 22 | 1013.3 |
| 20260507155122 | 77 | 359 | 5.0 | 8.0 | 0.00 | 0.00 | 0.00 | 23 | 1013.2 |
| 20260507154122 | 76 | 358 | 5.0 | 6.0 | 0.00 | 0.00 | 0.00 | 24 | 1013.4 |
| 20260507153122 | 76 | 0 | 4.0 | 8.0 | 0.00 | 0.00 | 0.00 | 25 | 1013.4 |
| 20260507152122 | 75 | 2 | 4.0 | 7.0 | 0.00 | 0.00 | 0.00 | 26 | 1013.4 |
| 20260507151122 | 74 | 3 | 5.0 | 8.0 | 0.00 | 0.00 | 0.00 | 28 | 1013.5 |
| 20260507150122 | 73 | 5 | 5.0 | 8.0 | 0.00 | 0.00 | 0.00 | 29 | 1013.4 |
| 20260507145122 | 72 | 0 | 5.0 | 8.0 | 0.00 | 0.00 | 0.00 | 29 | 1013.4 |
| 20260507144143 | 73 | 360 | 5.0 | 8.0 | 0.00 | 0.00 | 0.00 | 29 | 1013.3 |
| 20260507143122 | 75 | 16 | 4.0 | 9.0 | 0.00 | 0.00 | 0.00 | 26 | 1013.3 |
| 20260507142122 | 77 | 10 | 4.0 | 9.0 | 0.00 | 0.00 | 0.00 | 21 | 1013.3 |
| 20260507141122 | 72 | 2 | 3.0 | 6.0 | 0.00 | 0.00 | 0.00 | 29 | 1013.3 |
| 20260507140121 | 76 | 6 | 4.0 | 8.0 | 0.00 | 0.00 | 0.00 | 23 | 1013.3 |
| 20260507135121 | 72 | 31 | 4.0 | 10.0 | 0.00 | 0.00 | 0.00 | 27 | 1013.2 |
| 20260507134121 | 69 | 360 | 1.0 | 2.0 | 0.00 | 0.00 | 0.00 | 32 | 1013.0 |
| 20260507133121 | 69 | 26 | 1.0 | 2.0 | 0.00 | 0.00 | 0.00 | 32 | 1012.9 |
| 20260507132121 | 69 | 10 | 3.0 | 5.0 | 0.00 | 0.00 | 0.00 | 31 | 1012.9 |
| 20260507131121 | 69 | 6 | 2.0 | 4.0 | 0.00 | 0.00 | 0.00 | 30 | 1012.8 |
| 20260507130121 | 69 | 1 | 3.0 | 5.0 | 0.00 | 0.00 | 0.00 | 30 | 1012.8 |
| 20260507125142 | 70 | 0 | 5.0 | 8.0 | 0.00 | 0.00 | 0.00 | 28 | 1012.7 |
| 20260507124121 | 70 | 4 | 5.0 | 9.0 | 0.00 | 0.00 | 0.00 | 28 | 1012.7 |
| 20260507123121 | 69 | 3 | 5.0 | 11.0 | 0.00 | 0.00 | 0.00 | 29 | 1012.5 |
| 20260507122121 | 69 | 2 | 5.0 | 8.0 | 0.00 | 0.00 | 0.00 | 29 | 1012.6 |
| 20260507121121 | 70 | 0 | 5.0 | 8.0 | 0.00 | 0.00 | 0.00 | 29 | 1012.6 |
| 20260507120121 | 69 | 1 | 5.0 | 9.0 | 0.00 | 0.00 | 0.00 | 30 | 1012.6 |
| 20260507115142 | 69 | 2 | 6.0 | 9.0 | 0.00 | 0.00 | 0.00 | 30 | 1012.7 |
| 20260507114121 | 70 | 2 | 6.0 | 9.0 | 0.00 | 0.00 | 0.00 | 29 | 1012.6 |
| 20260507113121 | 70 | 360 | 6.0 | 10.0 | 0.00 | 0.00 | 0.00 | 28 | 1012.7 |
| 20260507112121 | 72 | 3 | 8.0 | 14.0 | 0.00 | 0.00 | 0.00 | 27 | 1012.8 |
| 20260507111142 | 71 | 3 | 7.0 | 12.0 | 0.00 | 0.00 | 0.00 | 28 | 1012.7 |
| 20260507110121 | 70 | 7 | 4.0 | 6.0 | 0.00 | 0.00 | 0.00 | 28 | 1012.8 |
| 20260507105121 | 69 | 8 | 4.0 | 8.0 | 0.00 | 0.00 | 0.00 | 29 | 1012.9 |
| 20260507104121 | 70 | 3 | 3.0 | 4.0 | 0.00 | 0.00 | 0.00 | 28 | 1012.9 |
| 20260507103121 | 71 | 4 | 4.0 | 6.0 | 0.00 | 0.00 | 0.00 | 27 | 1013.0 |
| 20260507102121 | 70 | 1 | 5.0 | 8.0 | 0.00 | 0.00 | 0.00 | 28 | 1013.1 |
| 20260507101121 | 67 | 3 | 5.0 | 8.0 | 0.00 | 0.00 | 0.00 | 30 | 1013.1 |
| 20260507100121 | 66 | 3 | 5.0 | 8.0 | 0.00 | 0.00 | 0.00 | 31 | 1013.3 |
| 20260507095121 | 67 | 3 | 4.0 | 6.0 | 0.00 | 0.00 | 0.00 | 30 | 1013.4 |
| 20260507094122 | 67 | 4 | 5.0 | 6.0 | 0.00 | 0.00 | 0.00 | 30 | 1013.4 |
| 20260507093143 | 66 | 7 | 5.0 | 7.0 | 0.00 | 0.00 | 0.00 | 32 | 1013.5 |
| 20260507092121 | 62 | 10 | 2.0 | 4.0 | 0.00 | 0.00 | 0.00 | 36 | 1013.7 |
| 20260507091121 | 62 | 9 | 1.0 | 3.0 | 0.00 | 0.00 | 0.00 | 35 | 1013.7 |
| 20260507090121 | 62 | 9 | 0.0 | 2.0 | 0.00 | 0.00 | 0.00 | 36 | 1013.7 |
| 20260507085121 | 63 | 9 | 0.0 | 0.0 | 0.00 | 0.00 | 0.00 | 35 | 1013.8 |
| 20260507084121 | 64 | 9 | 0.0 | 0.0 | 0.00 | 0.00 | 0.00 | 34 | 1013.9 |
| 20260507083121 | 64 | 9 | 2.0 | 3.0 | 0.00 | 0.00 | 0.00 | 34 | 1014.0 |
| 20260507082121 | 64 | 12 | 2.0 | 3.0 | 0.00 | 0.00 | 0.00 | 34 | 1014.1 |
| 20260507081121 | 65 | 10 | 1.0 | 2.0 | 0.00 | 0.00 | 0.00 | 33 | 1014.2 |
| 20260507080142 | 66 | 9 | 0.0 | 1.0 | 0.00 | 0.00 | 0.00 | 32 | 1014.3 |
| 20260507075121 | 67 | 5 | 2.0 | 3.0 | 0.00 | 0.00 | 0.00 | 31 | 1014.3 |
| 20260507074122 | 66 | 5 | 3.0 | 4.0 | 0.00 | 0.00 | 0.00 | 32 | 1014.3 |
| 20260507073121 | 66 | 1 | 3.0 | 4.0 | 0.00 | 0.00 | 0.00 | 31 | 1014.3 |
| 20260507072143 | 67 | 360 | 2.0 | 3.0 | 0.00 | 0.00 | 0.00 | 30 | 1014.3 |
| 20260507071121 | 68 | 357 | 3.0 | 4.0 | 0.00 | 0.00 | 0.00 | 29 | 1014.2 |
| 20260507070121 | 68 | 351 | 3.0 | 4.0 | 0.00 | 0.00 | 0.00 | 29 | 1014.3 |
| 20260507065121 | 69 | 358 | 3.0 | 4.0 | 0.00 | 0.00 | 0.00 | 28 | 1014.3 |
| 20260507064121 | 70 | 355 | 3.0 | 4.0 | 0.00 | 0.00 | 0.00 | 28 | 1014.3 |
| 20260507063121 | 69 | 358 | 3.0 | 4.0 | 0.00 | 0.00 | 0.00 | 28 | 1014.3 |
| 20260507062142 | 67 | 353 | 3.0 | 5.0 | 0.00 | 0.00 | 0.00 | 31 | 1014.2 |
| 20260507061121 | 66 | 360 | 3.0 | 3.0 | 0.00 | 0.00 | 0.00 | 31 | 1014.3 |
| 20260507060121 | 65 | 354 | 2.0 | 3.0 | 0.00 | 0.00 | 0.00 | 31 | 1014.3 |
| 20260507055121 | 67 | 335 | 1.0 | 2.0 | 0.00 | 0.00 | 0.00 | 30 | 1014.4 |
| 20260507054121 | 69 | 347 | 2.0 | 3.0 | 0.00 | 0.00 | 0.00 | 28 | 1014.3 |
| 20260507053121 | 68 | 352 | 4.0 | 5.0 | 0.00 | 0.00 | 0.00 | 29 | 1014.3 |
| 20260507052121 | 67 | 360 | 3.0 | 4.0 | 0.00 | 0.00 | 0.00 | 30 | 1014.3 |
| 20260507051121 | 67 | 360 | 2.0 | 3.0 | 0.00 | 0.00 | 0.00 | 30 | 1014.3 |
| 20260507050142 | 67 | 360 | 2.0 | 2.0 | 0.00 | 0.00 | 0.00 | 30 | 1014.3 |
| 20260507045121 | 67 | 360 | 1.0 | 2.0 | 0.00 | 0.00 | 0.00 | 29 | 1014.2 |
| 20260507044121 | 68 | 360 | 0.0 | 0.0 | 0.00 | 0.00 | 0.00 | 29 | 1014.2 |
| 20260507043121 | 68 | 360 | 1.0 | 2.0 | 0.00 | 0.00 | 0.00 | 28 | 1014.1 |
| 20260507042121 | 69 | 357 | 2.0 | 3.0 | 0.00 | 0.00 | 0.00 | 28 | 1014.0 |
| 20260507041121 | 69 | 360 | 2.0 | 3.0 | 0.00 | 0.00 | 0.00 | 27 | 1013.8 |
| 20260507040142 | 70 | 360 | 2.0 | 3.0 | 0.00 | 0.00 | 0.00 | 27 | 1013.7 |
| 20260507035122 | 70 | 348 | 2.0 | 3.0 | 0.00 | 0.00 | 0.00 | 27 | 1013.6 |
| 20260507034121 | 72 | 360 | 0.0 | 2.0 | 0.00 | 0.00 | 0.00 | 27 | 1013.5 |
| 20260507033121 | 74 | 360 | 0.0 | 2.0 | 0.00 | 0.00 | 0.00 | 25 | 1013.4 |
| 20260507032122 | 75 | 323 | 1.0 | 2.0 | 0.00 | 0.00 | 0.00 | 24 | 1013.2 |
| 20260507031142 | 76 | 328 | 2.0 | 3.0 | 0.00 | 0.00 | 0.00 | 23 | 1013.2 |
| 20260507030142 | 77 | 335 | 2.0 | 3.0 | 0.00 | 0.00 | 0.00 | 23 | 1013.0 |
| 20260507025121 | 77 | 350 | 2.0 | 4.0 | 0.00 | 0.00 | 0.00 | 23 | 1012.9 |
| 20260507024121 | 78 | 294 | 3.0 | 4.0 | 0.00 | 0.00 | 0.00 | 22 | 1012.8 |
| 20260507023121 | 78 | 357 | 3.0 | 6.0 | 0.00 | 0.00 | 0.00 | 22 | 1012.7 |
| 20260507022142 | 79 | 360 | 2.0 | 3.0 | 0.00 | 0.00 | 0.00 | 22 | 1012.6 |
| 20260507021121 | 79 | 360 | 3.0 | 6.0 | 0.00 | 0.00 | 0.00 | 22 | 1012.4 |
| 20260507020121 | 79 | 360 | 3.0 | 5.0 | 0.00 | 0.00 | 0.00 | 22 | 1012.6 |
| 20260507015122 | 80 | 352 | 5.0 | 8.0 | 0.00 | 0.00 | 0.00 | 21 | 1012.6 |
| 20260507014121 | 80 | 360 | 4.0 | 10.0 | 0.00 | 0.00 | 0.00 | 21 | 1012.4 |
| 20260507013122 | 80 | 359 | 5.0 | 6.0 | 0.00 | 0.00 | 0.00 | 21 | 1012.5 |
| 20260507012121 | 81 | 357 | 5.0 | 10.0 | 0.00 | 0.00 | 0.00 | 21 | 1012.4 |
| 20260507011121 | 81 | 359 | 4.0 | 7.0 | 0.00 | 0.00 | 0.00 | 21 | 1012.4 |
| 20260507010123 | 81 | 356 | 5.0 | 10.0 | 0.00 | 0.00 | 0.00 | 21 | 1012.4 |
| 20260507005121 | 81 | 352 | 6.0 | 10.0 | 0.00 | 0.00 | 0.00 | 21 | 1012.4 |
| 20260507004121 | 81 | 353 | 5.0 | 10.0 | 0.00 | 0.00 | 0.00 | 21 | 1012.5 |
| 20260507003142 | 81 | 354 | 5.0 | 9.0 | 0.00 | 0.00 | 0.00 | 21 | 1012.4 |
| 20260507002123 | 80 | 359 | 4.0 | 9.0 | 0.00 | 0.00 | 0.00 | 21 | 1012.4 |
| 20260507001121 | 82 | 360 | 4.0 | 7.0 | 0.00 | 0.00 | 0.00 | 21 | 1012.4 |
| 20260507000121 | 81 | 358 | 4.0 | 9.0 | 0.00 | 0.00 | 0.00 | 21 | 1012.4 |
| 20260506235144 | 82 | 356 | 7.0 | 12.0 | 0.00 | 0.00 | 0.00 | 20 | 1012.4 |
| 20260506234122 | 82 | 353 | 4.0 | 9.0 | 0.00 | 0.00 | 0.00 | 20 | 1012.5 |
| 20260506233121 | 81 | 356 | 9.0 | 14.0 | 0.00 | 0.00 | 0.00 | 20 | 1012.5 |
| 20260506232121 | 81 | 355 | 4.0 | 9.0 | 0.00 | 0.00 | 0.00 | 21 | 1012.6 |
| 20260506231121 | 82 | 356 | 7.0 | 13.0 | 0.00 | 0.00 | 0.00 | 21 | 1012.7 |
| 20260506230121 | 82 | 358 | 7.0 | 11.0 | 0.00 | 0.00 | 0.00 | 21 | 1012.6 |
| 20260506225121 | 82 | 356 | 6.0 | 10.0 | 0.00 | 0.00 | 0.00 | 20 | 1012.7 |
| 20260506224121 | 80 | 359 | 5.0 | 11.0 | 0.00 | 0.00 | 0.00 | 21 | 1013.0 |
| 20260506223121 | 81 | 356 | 7.0 | 13.0 | 0.00 | 0.00 | 0.00 | 21 | 1013.1 |
| 20260506222123 | 80 | 355 | 4.0 | 9.0 | 0.00 | 0.00 | 0.00 | 21 | 1013.2 |
| 20260506221121 | 81 | 356 | 9.0 | 14.0 | 0.00 | 0.00 | 0.00 | 21 | 1013.3 |
| 20260506220143 | 80 | 359 | 7.0 | 12.0 | 0.00 | 0.00 | 0.00 | 21 | 1013.5 |
| 20260506215122 | 80 | 352 | 6.0 | 13.0 | 0.00 | 0.00 | 0.00 | 21 | 1013.5 |
| 20260506214123 | 80 | 358 | 7.0 | 11.0 | 0.00 | 0.00 | 0.00 | 21 | 1013.7 |
| 20260506213122 | 81 | 358 | 6.0 | 13.0 | 0.00 | 0.00 | 0.00 | 21 | 1013.9 |
| 20260506212121 | 80 | 358 | 6.0 | 13.0 | 0.00 | 0.00 | 0.00 | 22 | 1014.0 |
| 20260506211143 | 79 | 359 | 6.0 | 12.0 | 0.00 | 0.00 | 0.00 | 22 | 1014.2 |
| 20260506210121 | 79 | 359 | 7.0 | 11.0 | 0.00 | 0.00 | 0.00 | 22 | 1014.3 |
| 20260506205122 | 78 | 357 | 5.0 | 10.0 | 0.00 | 0.00 | 0.00 | 22 | 1014.4 |
| 20260506204121 | 79 | 360 | 9.0 | 14.0 | 0.00 | 0.00 | 0.00 | 22 | 1014.6 |
| 20260506203122 | 79 | 359 | 8.0 | 13.0 | 0.00 | 0.00 | 0.00 | 22 | 1014.7 |
| 20260506202123 | 78 | 358 | 4.0 | 10.0 | 0.00 | 0.00 | 0.00 | 23 | 1014.7 |
| 20260506201122 | 77 | 355 | 7.0 | 11.0 | 0.00 | 0.00 | 0.00 | 23 | 1014.8 |
| 20260506200122 | 77 | 5 | 4.0 | 9.0 | 0.00 | 0.00 | 0.00 | 23 | 1014.9 |
| 20260506195146 | 77 | 360 | 3.0 | 10.0 | 0.00 | 0.00 | 0.00 | 24 | 1015.1 |
| 20260506194143 | 77 | 359 | 8.0 | 14.0 | 0.00 | 0.00 | 0.00 | 24 | 1015.2 |